Lid_Strength_Index
1 1 1 1 1 1 1 1 1 1 1 0 0 0 0 1 1 0 3 2 1 -2 -1 2 2 2 2 4 3 4 6 7 7 7 6 4 5 4 3 4 4 3 4 3 1
1 1 1 1 1 1 1 1 1 1 1 1 0 1 1 1 1 2 1 -2 -3 -3 2 3 3 3 4 4 4 4 6 7 5 5 5 4 4 5 5 5 5 4 3 2 2
1 1 1 1 1 1 1 1 1 1 1 1 1 1 1 0 2 3 -5 -4 -4 -1 2 2 2 3 4 3 4 4 5 5 5 5 4 4 4 4 5 6 4 5 4 3 2
2 2 1 1 1 1 1 1 1 1 0 1 1 1 1 0 6 2 -4 -4 -4 1 2 3 3 4 4 5 4 6 5 5 4 4 5 5 4 5 4 4 3 3 3 3 3
2 2 2 2 1 1 1 1 1 1 1 1 1 1 1 3 4 0 -4 -2 1 3 3 3 4 4 5 4 5 5 5 5 5 4 4 4 4 4 4 3 3 2 3 3 3
2 2 2 2 2 1 1 1 2 2 1 1 1 1 3 5 1 0 1 2 2 2 3 3 4 3 4 5 5 6 5 6 5 4 4 5 4 5 4 3 3 3 3 3 3
2 2 2 2 2 1 1 2 2 2 1 1 1 1 4 4 1 1 1 1 2 2 3 3 3 4 4 5 5 6 6 5 5 5 5 4 6 6 3 3 3 3 3 3 3
2 2 2 2 2 2 1 2 2 1 1 1 0 1 4 1 0 1 0 1 1 2 3 2 2 3 4 3 5 6 6 7 5 4 5 5 7 5 3 3 4 4 3 3 3
2 2 2 2 2 2 2 2 2 1 1 1 1 3 4 1 2 2 1 3 2 3 2 3 3 4 4 5 6 6 8 8 7 4 5 5 7 5 3 4 4 4 4 4 3
2 3 3 2 2 2 2 3 1 1 0 0 2 3 2 4 2 2 2 2 3 3 3 3 3 5 5 6 9 8 8 8 8 6 5 6 6 5 4 4 5 4 4 4 4
2 3 3 2 2 3 2 0 2 3 2 3 3 3 3 2 1 3 2 3 3 3 5 4 6 7 6 6 6 7 7 8 7 5 6 7 7 6 5 5 5 5 5 5 4
2 3 3 3 3 3 0 2 2 1 5 2 2 3 2 2 4 3 2 4 4 6 5 5 7 5 6 6 6 7 8 8 6 6 6 7 7 6 6 6 5 5 5 5 5
3 3 3 3 3 1 1 1 -0 0 4 4 3 3 3 2 4 4 3 3 5 6 6 7 6 5 6 6 7 7 8 8 8 6 5 7 7 7 6 5 5 4 4 4 4
3 3 3 3 3 -1 1 -0 -0 0 7 6 4 3 2 3 4 3 3 3 5 6 6 6 5 6 6 7 6 8 6 7 7 8 10 7 11 8 7 7 6 6 5 5 4
3 3 3 5 0 1 1 -1 0 1 12 6 5 1 2 4 4 4 2 3 6 6 5 7 6 7 7 7 6 7 6 6 7 8 8 8 10 8 7 8 8 7 6 5 5
3 3 3 1 -1 1 -1 -1 1 8 13 7 5 5 5 5 5 4 4 2 3 5 5 6 4 5 6 5 5 5 6 6 6 8 11 9 9 9 8 8 8 7 7 6 5
4 4 2 0 1 -1 -1 1 8 11 6 7 7 5 6 6 6 5 6 6 7 8 8 7 7 5 5 6 5 6 7 11 11 11 12 9 10 10 7 7 7 8 7 6 6
4 5 3 -0 -1 -1 1 4 10 9 8 5 6 6 7 6 6 6 7 7 6 6 8 9 10 7 5 6 8 7 7 11 14 13 11 8 12 11 7 6 6 6 7 7 7
5 -1 -1 -1 -1 -1 3 8 8 8 6 7 6 7 8 7 6 7 7 7 7 6 9 9 10 6 6 5 6 7 9 7 10 9 12 9 9 8 7 7 7 7 7 8 8
2 0 1 -1 -0 1 5 8 7 6 6 6 9 7 9 8 8 8 8 7 7 5 5 7 10 7 6 5 6 7 6 10 9 15 15 11 10 12 9 7 7 7 7 7 6
1 3 0 0 -0 3 6 7 6 5 5 6 7 8 8 8 7 8 8 7 6 6 5 6 8 8 6 8 9 7 8 8 9 10 14 14 11 8 8 7 7 7 5 6 5
2 4 0 0 4 3 5 6 7 5 4 5 5 6 7 7 8 8 8 7 5 5 7 6 7 10 9 6 6 7 8 8 12 12 10 11 12 6 6 6 6 6 5 6 4
3 3 -0 1 6 6 5 6 5 6 6 6 6 6 6 7 9 8 7 5 5 6 7 6 8 11 10 8 7 8 7 8 8 9 12 13 11 6 6 6 5 5 5 4 4
3 5 3 3 3 6 6 6 7 5 5 5 6 5 6 8 6 8 8 6 5 6 5 6 8 9 12 10 8 9 8 8 9 12 11 11 11 8 7 7 6 5 5 5 5
3 6 5 6 6 5 5 6 7 7 5 5 6 6 7 9 8 8 7 6 6 6 6 6 9 8 8 8 8 8 9 8 9 9 12 11 10 9 7 7 6 5 6 6 5
4 5 3 4 5 6 6 7 7 7 6 7 7 6 6 8 8 9 7 7 7 6 6 6 9 8 10 8 9 10 9 9 9 9 9 9 10 6 6 5 6 6 5 5 5
1 1 4 6 6 6 7 7 7 6 5 5 6 6 7 6 5 5 4 5 5 6 7 7 8 10 12 9 9 11 10 9 9 8 9 12 9 6 7 6 6 5 5 5 4